Weather Service Report


919 
ASUS41 KBTV 201810
RWRBTV
VERMONT REGIONAL WEATHER ROUNDUP
NATIONAL WEATHER SERVICE BURLINGTON VT
200 PM EDT SAT SEP 20 2014

NOTE: "FAIR" INDICATES FEW OR NO CLOUDS BELOW 12,000 FEET WITH NO 
SIGNIFICANT WEATHER AND/OR OBSTRUCTIONS TO VISIBILITY.

* THESE REPORTS ARE NOT UNDER NWS QUALITY CONTROL AND/OR DO NOT
  REPORT WEATHER SUCH AS PRECIPITATION AND FOG.

VTZ001>019-201900-
_____VERMONT_____

  
CITY           SKY/WX    TMP DP  RH WIND       PRES   REMARKS
BURLINGTON     MOCLDY    66  53  63 S25G32    30.05F                  
6HR MIN TEMP:  55; 6HR MAX TEMP:  67;                                

MONTPELIER     CLOUDY    55  49  80 S13       30.14F                  
6HR MIN TEMP:  45; 6HR MAX TEMP:  55;                                

MORRISVILLE    CLOUDY    62  52  69 MISG      30.08F                  
6HR MIN TEMP:  46; 6HR MAX TEMP:  62;                                

ST. JOHNSBURY*   N/A     56  49  77 MISG      30.10F                  
6HR MIN TEMP:  47; 6HR MAX TEMP:  56;                                

MIDDLEBURY*    CLOUDY    65  55  71 S10G16    30.09F                  
6HR MIN TEMP:  55; 6HR MAX TEMP:  66;                                

RUTLAND*       CLOUDY    64  54  68 S7        30.11F                  
6HR MIN TEMP:  52; 6HR MAX TEMP:  64;                                

SPRINGFIELD    CLOUDY    66  53  63 VRB6      30.15F                  
6HR MIN TEMP:  44; 6HR MAX TEMP:  66;                                

HIGHGATE*      CLOUDY    65  54  67 S8G17     30.01F                  
6HR MIN TEMP:  55; 6HR MAX TEMP:  65;                                

NEWPORT*       CLOUDY    56  50  78 S6        30.08F                  
6HR MIN TEMP:  45; 6HR MAX TEMP:  58;                                

BENNINGTON     PTCLDY    69  54  58 S13G22    30.14F                  
6HR MIN TEMP:  55; 6HR MAX TEMP:  69;                                

SUTTON*          N/A     52 N/A N/A MISG        N/A                   

_____LAKE CHAMPLAIN_____

  
CITY           SKY/WX    TMP DP  RH WIND       PRES   REMARKS
COLCHESTER RF*   N/A     63  55  77 S32         N/A                   
DIAMOND ISL*     N/A     63  54  72 S15         N/A                   

$$

NYZ007-026>031-035-052-083-201900-
_____NORTHERN NEW YORK_____

  
CITY           SKY/WX    TMP DP  RH WIND       PRES   REMARKS
PLATTSBURGH    CLOUDY    65  54  67 S14G24    30.00F                  
6HR MIN TEMP:  52; 6HR MAX TEMP:  66;                                

SARANAC LAKE   CLOUDY    62  54  74 SW18G28   30.02F                  
6HR MIN TEMP:  53; 6HR MAX TEMP:  62;                                

MASSENA        MOCLDY    73  60  63 SW20G32   29.93F                  
6HR MIN TEMP:  60; 6HR MAX TEMP:  73;                                

OGDENSBURG*    MOCLDY    72  61  68 SW14G21   29.92F                  
POTSDAM*       CLOUDY    72  63  73 SW16G24   29.94F                  
WATERTOWN      PTCLDY    75  57  53 S16G28    29.95F                  
6HR MIN TEMP:  63; 6HR MAX TEMP:  75;                                

FT DRUM        PTCLDY    73  56  55 SW23G30   29.96F                  
6HR MIN TEMP:  27; 6HR MAX TEMP:  73;                                

ALBANY         MOCLDY    73  56  54 S9G21     30.11F                  
6HR MIN TEMP:  56; 6HR MAX TEMP:  73;                                

GLENS FALLS    CLOUDY    66  55  67 S6        30.10F                  
6HR MIN TEMP:  51; 6HR MAX TEMP:  66;                                


$$
NHZ002-005-011-201900-
_____NEW HAMPSHIRE_____

  
CITY           SKY/WX    TMP DP  RH WIND       PRES   REMARKS
LEBANON        CLOUDY    64  50  60 S13G22    30.13F                  
6HR MIN TEMP:  49; 6HR MAX TEMP:  64;                                

KEENE          CLOUDY    63  48  59 CALM      30.18F                  
6HR MIN TEMP:  43; 6HR MAX TEMP:  63;                                

MT WASHINGTON  FOG       41  41 100 W54         N/A  VSB 0            
6HR MIN TEMP:  34; 6HR MAX TEMP:  41;                                

PLYMOUTH       CLOUDY    53  48  82 CALM      30.18F                  
6HR MIN TEMP:  38; 6HR MAX TEMP:  53;                                

WHITEFIELD     CLOUDY    62  51  67 SW8G16    30.12F                  
6HR MIN TEMP:  38; 6HR MAX TEMP:  62;                                


$$

_____REGIONAL QUEBEC LOCATIONS_____

  
CITY           SKY/WX    TMP DP  RH WIND       PRES   REMARKS
MONTREAL       CLOUDY    64  54  68 S15       29.94F                  
QUEBEC CITY    LGT RAIN  52  48  87 VRB2      29.95F                  
SHERBROOKE     CLOUDY    61  52  72 S12G20    30.02F                  

_____REGIONAL ONTARIO LOCATIONS_____

  
CITY           SKY/WX    TMP DP  RH WIND       PRES   REMARKS
OTTAWA         MOCLDY    70  59  68 SW14G22   29.89F                  

______KEY______
VSB  - VISIBILITY IN MILES
WCI  - WIND CHILL INDEX
HX   - HEAT INDEX
$$
NNNN

Return to Home page


Western Regional Climate Center, wrcc@dri.edu